Voltar ao catálogo

STARLINK-5491

AtivoComunicaçõesVLEO
NORAD 55332·PAYLOAD·🇺🇸 United States

Lançado Jan 26, 2023 de Cape Canaveral Space Force Station

Loading…

Próximas Passagens (próximas 24 horas)

TLE

AtualizadoSource: CelesTrak SupGP

Época: Sep 15, 2026, 01:51 UTC

1 55332C 23013B   26258.07756944  .00031586  00000+0  11440-2 0  2584
2 55332  43.0004 299.4492 0001474 260.1658 113.8065 15.27562028    17

Acompanhe STARLINK-5491 em tempo real com AllMySat

Download on the App Store